• In Uzbekistan
  • List of Countries
  • For 7 days
  • Water Temperature
  • Satellite Maps
  • Weather Map
  • Weather Widgets
  • user-avatar
    Login

    Hourly Weather Prutz

    Today, 8 December, Thursday

    Time Temperature Precipitation Wind Pressure Humidity
    00:00 -4°C° 0 mm 1 mps 639 mmHg 54%
    01:00 -4°C° 0 mm 1 mps 639 mmHg 53%
    02:00 -3°C° 0 mm 1 mps 639 mmHg 52%
    03:00 -3°C° 0 mm 1 mps 639 mmHg 52%
    04:00 -3°C° 0 mm 1 mps 639 mmHg 52%
    05:00 -3°C° 0 mm 1 mps 639 mmHg 51%
    06:00 -3°C° 0 mm 1 mps 639 mmHg 50%
    07:00 -3°C° 0 mm 1 mps 639 mmHg 49%
    08:00 -1°C° 0 mm 1 mps 640 mmHg 51%
    09:00 +1°C° 0 mm 1 mps 641 mmHg 52%
    10:00 +4°C° 0 mm 1 mps 642 mmHg 53%
    11:00 +5°C° 0 mm 1 mps 642 mmHg 56%
    12:00 +6°C° 0 mm 1 mps 643 mmHg 58%
    13:00 +7°C° 0 mm 1 mps 643 mmHg 61%
    14:00 +5°C° 0 mm 1 mps 642 mmHg 59%
    15:00 +2°C° 0 mm 1 mps 641 mmHg 57%
    16:00 0°C° 0 mm 1 mps 639 mmHg 55%
    17:00 -1°C° 0 mm 1 mps 639 mmHg 56%
    18:00 -2°C° 0 mm 1 mps 639 mmHg 57%
    19:00 -2°C° 0 mm 1 mps 639 mmHg 57%
    20:00 -2°C° 0 mm 1 mps 639 mmHg 56%
    21:00 -2°C° 0 mm 1 mps 639 mmHg 55%
    22:00 -2°C° 0 mm 1 mps 640 mmHg 53%
    23:00 -2°C° 0 mm 1 mps 640 mmHg 53%

    Tomorrow, 9 December, Friday

    Time Temperature Precipitation Wind Pressure Humidity
    00:00 -2°C° 0 mm 1 mps 640 mmHg 53%
    01:00 -2°C° 0 mm 1 mps 640 mmHg 52%
    02:00 -2°C° 0 mm 1 mps 639 mmHg 51%
    03:00 -2°C° 0 mm 1 mps 639 mmHg 51%
    04:00 -2°C° 0 mm 1 mps 639 mmHg 50%
    05:00 -2°C° 0 mm 1 mps 639 mmHg 49%
    06:00 -2°C° 0 mm 1 mps 639 mmHg 48%
    07:00 -2°C° 0 mm 1 mps 639 mmHg 47%
    08:00 0°C° 0 mm 1 mps 640 mmHg 49%
    09:00 +2°C° 0 mm 1 mps 640 mmHg 51%
    10:00 +4°C° 0 mm 1 mps 641 mmHg 53%
    11:00 +5°C° 0 mm 1 mps 641 mmHg 56%
    12:00 +6°C° 0 mm 1 mps 641 mmHg 59%
    13:00 +7°C° 0 mm 1 mps 641 mmHg 61%
    14:00 +5°C° 0 mm 1 mps 640 mmHg 58%
    15:00 +3°C° 0 mm 1 mps 639 mmHg 54%
    16:00 +1°C° 0 mm 1 mps 638 mmHg 51%
    17:00 0°C° 0 mm 1 mps 638 mmHg 51%
    18:00 0°C° 0 mm 1 mps 638 mmHg 50%
    19:00 -1°C° 0 mm 1 mps 638 mmHg 50%
    20:00 -1°C° 0 mm 1 mps 638 mmHg 48%
    21:00 -1°C° 0 mm 1 mps 638 mmHg 46%
    22:00 -1°C° 0 mm 1 mps 637 mmHg 44%
    23:00 -1°C° 0 mm 1 mps 637 mmHg 44%

    Day after tomorrow, 10 December, Saturday

    Time Temperature Precipitation Wind Pressure Humidity
    00:00 -1°C° 0 mm 1 mps 637 mmHg 43%
    01:00 -1°C° 0 mm 1 mps 637 mmHg 42%
    02:00 -1°C° 0 mm 1 mps 637 mmHg 44%
    03:00 -1°C° 0 mm 1 mps 636 mmHg 46%
    04:00 -1°C° 0 mm 1 mps 636 mmHg 48%
    05:00 -1°C° 0 mm 1 mps 636 mmHg 50%
    06:00 -1°C° 0 mm 1 mps 636 mmHg 51%
    07:00 -1°C° 0 mm 1 mps 636 mmHg 53%
    08:00 +1°C° 0 mm 1 mps 637 mmHg 54%
    09:00 +3°C° 0 mm 1 mps 638 mmHg 55%
    10:00 +5°C° 0 mm 1 mps 638 mmHg 56%
    11:00 +6°C° 0 mm 1 mps 639 mmHg 58%
    12:00 +7°C° 0 mm 1 mps 639 mmHg 61%
    13:00 +7°C° 0 mm 0 mps 639 mmHg 63%
    14:00 +5°C° 0 mm 0 mps 638 mmHg 61%
    15:00 +2°C° 0 mm 0 mps 636 mmHg 58%
    16:00 0°C° 0 mm 0 mps 635 mmHg 55%
    17:00 -1°C° 0 mm 0 mps 635 mmHg 56%
    18:00 -1°C° 0 mm 0 mps 635 mmHg 56%
    19:00 -1°C° 0 mm 1 mps 634 mmHg 57%
    20:00 -1°C° 0 mm 1 mps 634 mmHg 55%
    21:00 -1°C° 0 mm 1 mps 634 mmHg 53%
    22:00 -2°C° 0 mm 1 mps 634 mmHg 51%
    23:00 -2°C° 0 mm 1 mps 633 mmHg 51%

    11 December, Sunday

    Time Temperature Precipitation Wind Pressure Humidity
    00:00 -2°C° 0 mm 1 mps 633 mmHg 51%
    01:00 -2°C° 0 mm 1 mps 633 mmHg 51%
    02:00 -2°C° 0 mm 1 mps 632 mmHg 49%
    03:00 -2°C° 0 mm 1 mps 632 mmHg 47%
    04:00 -2°C° 0 mm 1 mps 632 mmHg 44%
    05:00 -2°C° 0 mm 1 mps 632 mmHg 44%
    06:00 -2°C° 0 mm 1 mps 631 mmHg 43%
    07:00 -2°C° 0 mm 1 mps 631 mmHg 42%
    08:00 0°C° 0 mm 1 mps 632 mmHg 45%
    09:00 +1°C° 0 mm 1 mps 633 mmHg 48%
    10:00 +3°C° 0 mm 1 mps 634 mmHg 51%
    11:00 +4°C° 0 mm 1 mps 634 mmHg 56%
    12:00 +5°C° 0 mm 1 mps 634 mmHg 60%
    13:00 +6°C° 0 mm 1 mps 634 mmHg 65%
    14:00 +4°C° 0 mm 1 mps 634 mmHg 67%
    15:00 +3°C° 0 mm 1 mps 633 mmHg 70%
    16:00 +1°C° 0 mm 1 mps 633 mmHg 72%
    17:00 +1°C° 0.2 mm 1 mps 633 mmHg 75%
    18:00 +1°C° 0.2 mm 1 mps 634 mmHg 77%
    19:00 +1°C° 0.2 mm 1 mps 634 mmHg 79%
    20:00 +1°C° 0.2 mm 1 mps 634 mmHg 83%
    21:00 0°C° 0.2 mm 1 mps 634 mmHg 86%
    22:00 0°C° 0.2 mm 1 mps 634 mmHg 90%
    23:00 0°C° 0.1 mm 1 mps 634 mmHg 92%

    12 December, Monday

    Time Temperature Precipitation Wind Pressure Humidity
    00:00 0°C° 0.1 mm 1 mps 634 mmHg 94%
    01:00 0°C° 0.1 mm 1 mps 634 mmHg 96%
    02:00 0°C° 0.1 mm 1 mps 634 mmHg 96%
    03:00 0°C° 0.1 mm 1 mps 634 mmHg 97%
    04:00 0°C° 0.1 mm 1 mps 634 mmHg 97%
    05:00 0°C° 0.1 mm 1 mps 634 mmHg 97%
    06:00 0°C° 0.1 mm 1 mps 634 mmHg 97%
    07:00 0°C° 0.1 mm 1 mps 635 mmHg 97%
    08:00 +1°C° 0.1 mm 1 mps 635 mmHg 96%
    09:00 +1°C° 0.1 mm 1 mps 635 mmHg 94%
    10:00 +2°C° 0.1 mm 1 mps 636 mmHg 93%
    11:00 +2°C° 0 mm 1 mps 636 mmHg 91%
    12:00 +2°C° 0 mm 1 mps 636 mmHg 90%
    13:00 +3°C° 0 mm 1 mps 635 mmHg 88%
    14:00 +2°C° 0 mm 1 mps 635 mmHg 90%
    15:00 +1°C° 0 mm 1 mps 635 mmHg 93%
    16:00 0°C° 0 mm 1 mps 635 mmHg 95%
    17:00 0°C° 0 mm 1 mps 635 mmHg 95%
    18:00 -1°C° 0 mm 1 mps 635 mmHg 96%
    19:00 -2°C° 0 mm 1 mps 635 mmHg 96%
    20:00 -3°C° 0 mm 1 mps 634 mmHg 96%
    21:00 -4°C° 0 mm 1 mps 634 mmHg 95%
    22:00 -4°C° 0 mm 1 mps 634 mmHg 94%
    23:00 -4°C° 0 mm 1 mps 634 mmHg 93%

    13 December, Tuesday

    Time Temperature Precipitation Wind Pressure Humidity
    00:00 -4°C° 0 mm 1 mps 634 mmHg 91%
    01:00 -4°C° 0 mm 1 mps 634 mmHg 89%
    02:00 -4°C° 0 mm 1 mps 634 mmHg 89%
    03:00 -4°C° 0 mm 1 mps 634 mmHg 89%
    04:00 -4°C° 0 mm 1 mps 634 mmHg 89%
    05:00 -4°C° 0 mm 1 mps 634 mmHg 89%
    06:00 -6°C° 0 mm 1 mps 634 mmHg 89%
    07:00 -6°C° 0 mm 1 mps 634 mmHg 89%
    08:00 -3°C° 0 mm 1 mps 635 mmHg 86%
    09:00 -1°C° 0 mm 1 mps 636 mmHg 83%
    10:00 +1°C° 0 mm 1 mps 636 mmHg 80%
    11:00 +2°C° 0 mm 1 mps 636 mmHg 81%
    12:00 +3°C° 0 mm 1 mps 637 mmHg 81%
    13:00 +4°C° 0 mm 1 mps 637 mmHg 82%
    14:00 +2°C° 0 mm 1 mps 636 mmHg 86%
    15:00 0°C° 0 mm 1 mps 635 mmHg 90%
    16:00 -2°C° 0 mm 0 mps 635 mmHg 94%
    17:00 -2°C° 0 mm 1 mps 634 mmHg 94%
    18:00 -3°C° 0 mm 1 mps 634 mmHg 94%
    19:00 -3°C° 0 mm 1 mps 634 mmHg 95%
    20:00 -3°C° 0 mm 1 mps 634 mmHg 94%
    21:00 -3°C° 0 mm 1 mps 634 mmHg 93%
    22:00 -3°C° 0 mm 1 mps 634 mmHg 92%
    23:00 -3°C° 0 mm 1 mps 634 mmHg 92%
    Show more